Kansas City International, MO

4:25 AM CDT on May 29, 2017 (GMT -0500)
Kansas City International

Weather History for KMCI - December, 2013

Change the Weather History Date:

Tuesday, December 3, 2013

  Actual Average Record
Temperature  
Mean Temperature 49 °F 35 °F  
Max Temperature 60 °F 44 °F 74 °F (2012)
Min Temperature 38 °F 26 °F 6 °F (1895)
Degree Days  
Heating Degree Days 16 30  
Month to date heating degree days 56 89  
Since 1 July heating degree days 1121 1091  
Cooling Degree Days 0 0  
Month to date cooling degree days 0 0  
Year to date cooling degree days 1345 1360  
Moisture  
Dew Point 40 °F    
Average Humidity 71    
Maximum Humidity 92    
Minimum Humidity 49    
Precipitation  
Precipitation 0.00 in 0.06 in 2.01 in (1947)
Month to date precipitation 0.00 0.18  
Year to date precipitation 33.68 37.51  
Snow  
Snow 0.00 in 0.20 in 7.20 in (1898)
Month to date snowfall 0.0 0.4  
Since 1 July snowfall T 1.8  
Snow Depth 0.00 in    
Sea Level Pressure  
Sea Level Pressure 29.57 in    
Wind  
Wind Speed 8 mph (SSW)    
Max Wind Speed 14 mph    
Max Gust Speed 16 mph    
Visibility 7 miles    
Events      
T = Trace of Precipitation, MM = Missing Value Source: NWS Daily Summary

Daily Weather History Graph

Daily Weather History Graph

Search for Another Location

Airport or City:

Trip Planner

Search our weather history database for the weather conditions in past years. The results will help you decide how hot, cold, wet, or windy it might be!

Date:

Astronomy

Dec. 03, 2013 Rise Set
Actual Time 7:21 AM CST 4:55 PM CST
Civil Twilight 6:51 AM CST 5:25 PM CST
Nautical Twilight 6:18 AM CST 5:58 PM CST
Astronomical Twilight 5:46 AM CST 6:31 PM CST
Moon 7:52 AM CST (12/3) 6:00 PM CST (12/3)
Length of Visible Light 10h 33m
Length of Day
9h 33m
New Moon, 1% of the Moon is Illuminated
Dec 3
New Moon
Dec 9
First Quarter
Dec 17
Full
Dec 25
Last Quarter
Jan 1
New

Hourly Weather History & Observations

Time (CST) Temp. Windchill Dew Point Humidity Pressure Visibility Wind Dir Wind Speed Gust Speed Precip Events Conditions
12:53 AM 39.9 °F 33.4 °F 37.0 °F 89% 29.58 in 5.0 mi South 10.4 mph - N/A   Clear
1:53 AM 42.1 °F 36.1 °F 37.9 °F 85% 29.57 in 6.0 mi South 10.4 mph - N/A   Clear
2:53 AM 39.9 °F 33.9 °F 37.0 °F 89% 29.58 in 4.0 mi South 9.2 mph - N/A   Clear
3:53 AM 42.1 °F 36.1 °F 39.0 °F 89% 29.56 in 4.0 mi South 10.4 mph - N/A   Scattered Clouds
4:53 AM 42.1 °F 36.6 °F 39.0 °F 89% 29.56 in 5.0 mi SSW 9.2 mph - N/A   Mostly Cloudy
5:53 AM 44.1 °F 38.1 °F 39.9 °F 85% 29.55 in 4.0 mi SSW 11.5 mph - N/A   Overcast
6:53 AM 44.1 °F 39.0 °F 41.0 °F 89% 29.57 in 5.0 mi SSW 9.2 mph - N/A   Overcast
7:53 AM 44.1 °F 38.6 °F 41.0 °F 89% 29.57 in 3.0 mi South 10.4 mph - N/A   Overcast
8:53 AM 44.1 °F 38.1 °F 41.0 °F 89% 29.57 in 3.0 mi SSW 11.5 mph - N/A   Mostly Cloudy
9:53 AM 46.0 °F 40.6 °F 42.1 °F 86% 29.58 in 3.0 mi SSW 11.5 mph - N/A   Mostly Cloudy
10:53 AM 48.0 °F - 42.1 °F 80% 29.59 in 8.0 mi SSW 11.5 mph - N/A   Mostly Cloudy
11:53 AM 52.0 °F - 43.0 °F 71% 29.57 in 10.0 mi SSW 10.4 mph - N/A   Mostly Cloudy
12:53 PM 57.0 °F - 42.1 °F 57% 29.52 in 10.0 mi South 8.1 mph - N/A   Mostly Cloudy
1:53 PM 60.1 °F - 41.0 °F 49% 29.51 in 10.0 mi South 6.9 mph - N/A   Mostly Cloudy
2:53 PM 60.1 °F - 42.1 °F 51% 29.52 in 10.0 mi South 10.4 mph - N/A   Mostly Cloudy
3:53 PM 59.0 °F - 41.0 °F 51% 29.54 in 10.0 mi SSW 6.9 mph - N/A   Mostly Cloudy
4:53 PM 53.1 °F - 39.9 °F 61% 29.54 in 10.0 mi South 4.6 mph - N/A   Scattered Clouds
5:53 PM 51.1 °F - 39.9 °F 66% 29.56 in 10.0 mi SSW 4.6 mph - N/A   Scattered Clouds
6:53 PM 46.9 °F - 39.0 °F 74% 29.57 in 10.0 mi South 6.9 mph - N/A   Scattered Clouds
7:53 PM 46.9 °F - 39.9 °F 77% 29.59 in 10.0 mi WNW 4.6 mph - N/A   Mostly Cloudy
8:53 PM 44.1 °F - 39.0 °F 82% 29.59 in 10.0 mi Calm Calm - N/A   Scattered Clouds
9:53 PM 44.1 °F 42.5 °F 37.9 °F 79% 29.60 in 9.0 mi NNW 3.5 mph - N/A   Mostly Cloudy
10:53 PM 42.1 °F 37.1 °F 36.0 °F 79% 29.60 in 10.0 mi North 8.1 mph - N/A   Mostly Cloudy
11:53 PM 39.9 °F 33.9 °F 35.1 °F 83% 29.60 in 7.0 mi NNE 9.2 mph - N/A   Mostly Cloudy